Home   Weather   Hard   Past weeks

Flag for Austria Past Weather in Hard, Vorarlberg, Austria — Yesterday and Last 2 Weeks

Now
30 °F

Chilly.


Feels Like: 30 °F
Forecast: 20 / 29 °F
Wind: 2 mph from North

Location: Bregenz

Current Time: Jan 16, 2017 at 4:23:38 pm

Latest Report: Jan 16, 2017 at 3:00 pm


Visibility: N/A

Pressure: 30.22 "Hg

Humidity: 64%

Dew Point: 19 °F

Location of HardLocation

Past Weather in Hard — Graph

°F

Hard Temperature Yesterday

Maximum temperature yesterday: 31 °F (at 2:00 pm)
Minimum temperature yesterday: 28 °F (at 4:00 am)
Average temperature yesterday: 29 °F

High & Low Weather Summary for the Past Weeks

 TemperatureHumidityPressure
High42 °F (Jan 13, 12:00 am)98% (Jan 3, 7:00 am)30.77 "Hg (Jan 3, 7:00 am)
Low9 °F (Jan 7, 5:00 am)60% (Jan 10, 12:00 pm)29.47 "Hg (Jan 13, 1:00 am)
Average29 °F86%30.23 "Hg
* Reported Jan 1 3:00 pm — Jan 16 3:00 pm, Hard, Weather by CustomWeather, © 2017

Note: Actual official high and low records may vary slightly from our data, if they occured in-between our weather recording intervals... More about our weather records

Advertising

Hard Weather History for the Previous 24 Hours

Scroll right to see more
 ConditionsComfort  
Time TempWeatherWind HumidityBarometerVisibility
3:00 pm
Mon, Jan 16
30 °FChilly.2 mph64%30.22 "HgN/A
2:00 pm30 °FChilly.1 mph77%30.21 "HgN/A
1:00 pm27 °FScattered clouds.1 mph79%30.23 "Hg6 mi
12:00 pm27 °FChilly.No wind87%30.24 "HgN/A
11:00 am27 °FChilly.1 mph85%30.25 "HgN/A
10:00 am27 °FLight snow. Overcast.1 mph92%30.23 "Hg3 mi
9:00 am27 °FChilly.2 mph92%30.23 "HgN/A
8:00 am26 °FChilly.2 mph93%30.22 "HgN/A
7:00 am26 °FSnow. Overcast.1 mph96%30.22 "Hg1 mi
6:00 am26 °FFog.1 mph91%30.21 "HgN/A
5:00 am26 °FChilly.2 mph92%30.21 "HgN/A
4:00 am27 °FChilly.2 mph93%30.21 "HgN/A
3:00 am27 °FFog.1 mph94%30.22 "HgN/A
2:00 am28 °FChilly.1 mph91%30.22 "HgN/A
1:00 am28 °FChilly.1 mph91%30.22 "HgN/A
12:00 am28 °FChilly.1 mph91%30.23 "HgN/A
11:00 pm
Sun, Jan 15
29 °FChilly.3 mph87%30.23 "HgN/A
10:00 pm29 °FChilly.3 mph89%30.24 "HgN/A
9:00 pm29 °FFog.2 mph91%30.24 "HgN/A
8:00 pm29 °FLight mixture of precip. Overcast.1 mph87%30.25 "HgN/A
7:00 pm29 °FChilly.3 mph82%30.24 "HgN/A
6:00 pm29 °FLight mixture of precip. Overcast.2 mph90%30.24 "HgN/A
5:00 pm30 °FChilly.2 mph85%30.23 "HgN/A
4:00 pm29 °FChilly.3 mph86%30.23 "HgN/A
Weather by CustomWeather, © 2017

See weather overviewHow to use our weather pages